Location: Eaton Estates
(41.3089°N, 82.0057°W)
Time: 01:09:31
(UTC+00:00)

PCSat - Visible Passes

Search period start: 31 March 2023 00:00
Search period end: 10 April 2023 00:00
Orbit: 784 x 794 km, 67.1° (Epoch: 30 March)

Date Brightness Start Highest point End Pass type
(mag) Time Alt. Az. Time Alt. Az. Time Alt. Az.
31 Mar 12.4 05:13:14 10° NNW 05:13:40 12° NNW 05:13:40 12° NNW visible
01 Apr 12.2 04:42:07 10° NNW 04:43:05 15° N 04:43:05 15° N visible
02 Apr 12.1 04:11:05 10° N 04:12:33 16° N 04:12:33 16° N visible
03 Apr 11.9 03:40:07 10° N 03:42:01 16° NNE 03:42:01 16° NNE visible
03 Apr 12.4 05:22:31 10° NNW 05:22:42 11° NNW 05:22:42 11° NNW visible
04 Apr 11.9 03:09:18 10° N 03:11:30 15° NNE 03:11:30 15° NNE visible
04 Apr 12.2 04:51:13 10° NNW 04:52:11 16° NNW 04:52:11 16° NNW visible
05 Apr 11.9 02:38:48 10° NNE 02:40:47 12° NE 02:41:00 12° NE visible
05 Apr 11.8 04:19:57 10° NNW 04:21:41 20° NNW 04:21:41 20° NNW visible
06 Apr 11.5 03:48:46 10° NNW 03:51:12 25° N 03:51:12 25° N visible
07 Apr 11.2 03:17:39 10° NNW 03:20:44 26° NNE 03:20:44 26° NNE visible
07 Apr 12.3 05:00:56 10° NW 05:01:25 12° NW 05:01:25 12° NW visible
08 Apr 11.2 02:46:35 10° N 02:50:18 24° NE 02:50:18 24° NE visible
08 Apr 11.9 04:29:26 10° NW 04:30:59 19° NW 04:30:59 19° NW visible
09 Apr 11.3 02:15:38 10° N 02:19:30 19° NE 02:19:53 19° NE visible
09 Apr 11.3 03:58:02 10° NNW 04:00:34 28° NW 04:00:34 28° NW visible
